[Date Prev][Date Next][Thread Prev][Thread Next][Date Index][Thread Index]

[jamsat-news:1745] jas2info #290



========================   最新情報   ==============================

        Last updated  13Sep2002  20:10(JST)   #290

====================================================================
   
1)アマチュア通信衛星情報、FOシリーズの軌道要素、テレメトリ、QSOの
   状況等をまとめてみました.
   
 FO−29の2002年9月13日(金)の16:12(JST)のパスでは
JARLのホームページのとうりアナログ運用でした。 今日までの観測した
テレメトリーと最終行の分析結果を報告しておきます。

AS29991C  13Sep2002
16:14-16:29(JST)
AOS   MEL  LOS  Elev
 26    93  161  27.1
Freq. 435.802-.787Hz
(JAS-2 No.108 A 3360-3860END)

HI HI AE 07 88 55 00 D4 00 00 09 00 7C 87 71 4F 91 8D B0 65 92 8A 87 8F 84 
HI HI AE 07 88 55 00 D4 00 00 09 00 78 89 72 4F 92 8E 9C 8C 92 8A 87 8F 84 
HI HI AE C7 88 55 00 D4 00 00 09 00 74 8B 74 4D 92 8E 9B 82 92 8A 87 8F 84 
HI HI AE C7 88 55 00 D4 00 00 09 00 71 8D 77 4K 92 8F 9C 64 92 8A 87 8F 84 
HI HI AE 07 88 55 00 D4 00 00 09 00 6B 8E 76 4C 91 8D B0 74 92 8A 87 8F 84 
HI HI AE 07 88 55 00 D4 00 00 09 00 65 8E 75 5D 90 8D 9A 7D 92 8A 87 8E 84 
HI HI AE 07 88 55 00 D4 00 00 09 00 61 91 77 4C 92 8E 9B 70 92 8A 87 8E 84 
HI HI AE C7 88 55 00 D4 00 00 09 00 5D 92 76 4C 92 8F 9C 77 92 8A 87 8E 84 
HI HI AE 07 88 55 00 D4 00 00 09 00 58 93 76 5E 91 8D B0 7C 92 8A 87 8E 84 
HI HI AE 07 88 55 00 D4 00 00 09 00 51 96 75 5E 90 8D 9A 76 92 8A 87 8E 84 
HI HI AE 07 88 55 00 D4 00 00 09 00 4F 90 74 4E 91 8D 9A 5B 92 8A 87 8E 84 
HI HI AE 07 88 55 00 D4 00 00 09 00 4B 8E 71 5E 8F 8C 9A 72 91 7A 87 8E 84 
HI HI AE 07 88 55 00 D4 00 00 09 00 49 8E 70 4F 92 8E 9C 94 92 8A 87 8E 84 
HI HI AE 07 88 55 00 D4 00 00 09 00 46 8B 6F 4F 91 8D 9A 6E 92 8A 87 8E 83 
HI HI AE 07 88 55 00 D4 00 00 09 00 43 87 6D 50 91 8D 9A 79 91 8A 87 8E 84 
HI HI AE 07 88 55 00 D4 00 00 09 00 41 83 6A 53 91 8D 9A 8D 91 8A 87 8F 84 
HI HI AE 07 88 55 00 D4 00 00 09 00 3F 7E 67 52 90 8C 99 8A 91 8A 87 8E 84 
HI HI AE 07 86 55 00 D4 00 00 09 00 3E 79 68 53 90 8C 99 82 91 89 87 8F 84 
HI HI AE 07 88 55 00 D4 00 00 09 00 3C 73 68 53 90 8B 99 80 91 89 88 8F 84

AS29978C  12Sep2002
17:07-17:26(JST)
AOS   MEL  LOS  Elev
 14   101  188  72.1
Freq. 435.804-.787Hz
(JAS-2 No.108 A 2590-3360)
                                                                     85 80 
HI HI AE 07 88 55 00 D4 1F F3 09 47 4C 89 74 4E 92 8E 9C 72 84 8E 8F 85 80 
HI HI AE 07 88 55 00 D4 1F F3 09 47 4B 84 74 4D 92 8E 9C 71 84 8E 8F 85 80 
HI HI AE 07 88 55 00 D4 1F F3 09 47 4A 7F 74 4D 93 8E 9C 6F 84 8E 8F 85 80 
HI HI AE C7 88 55 00 D4 1F F3 09 47 4A 7B 75 4D 91 8D 9B 7B 84 8E 90 85 80 
HI HI AE 07 88 55 00 D4 1F F3 09 47 4A 77 75 4D 92 8F 9C 67 84 8E 90 85 80 
HI HI AE 07 88 55 00 D4 1F F3 09 47 49 73 76 4D 92 8E 9B 79 84 8E 90 85 80 
HI HI AE 07 88 55 00 D4 1F F3 09 47 49 70 76 4B 91 8D 9B 93 84 8E 90 85 80 
HI HI AE 07 88 55 00 D4 1F F3 09 47 4A 6D 76 4C 92 8D B0 6F 84 8E 90 85 80 
HI HI AE 07 88 55 00 D4 1F F3 09 47 4A 6B 77 4C 92 8E 9B 6B 84 8E 90 85 80 
HI HI AE C7 88 55 00 D4 1F F3 09 47 4B 6A 77 4C 91 8E 9B 61 84 8E 90 85 80 
HI HI AE 07 88 55 00 D4 1F F3 09 47 4B 68 77 4C 91 8D 9B 7F 84 8E 90 85 80 
HI HI AE 07 88 55 00 D4 1F F3 09 47 4C 66 75 5E 8F 8D 9A 6C 84 8E 90 85 80 
HI HI AE 07 88 55 00 D4 1F F3 09 47 4A 67 74 4B 92 8E 9C 76 84 8E 90 85 80 
HI HI AE 07 88 55 00 D4 1F F3 09 47 4E 68 76 4B 92 8E 9B 9F 84 8E 90 85 80 
HI HI AE 07 88 55 00 D4 1F F3 09 47 56 68 76 4C 91 8D 9A 81 84 8E 90 85 80 
HI HI AE 07 85 H5 00 D4 1F F3 09 47 54 69 75 4C 91 8E 9C 69 84 8E 90 85 80 
HI HI AE 07 88 55 00 D4 1F F4 09 47 52 6A 75 4D 91 8D 9A 83 84 8E 90 85 80
HI HI AE 07 88 55 00 D4 1F F3 09 47 54 6C 75 4C 92 8E 9C 68 84 8E 90 85 80 
HI HI AE 07 88 55 00 D4 1F F3 09 47 55 6E 75 4D 91 8D 9B 6B 84 8E 90 85 80 
HI HI AE 07 88 55 00 D4 1F F3 09 47 57 70 75 4E 92 7E 9C 6D 85 8E 90 86 80 
HI HI AE 07 88 55 00 D4 1F F3 09 46 59 72 65 4E 90 6D 8A 59 84 8E 80 86 80 
HI HI AE 07 88 55 00 D4 1F F3 09 47 5B 75 75 4C 92 8E 9B 8F 84 8E 90 86 80 
HI HI AE 07 88 55 00 D4 1F F3 09 47 5D 78 74 4D 92 8E 9B 73 84 8E 90 86 80 
HI HI AE 07 88 55 00 D4 1F F3 09 47 5E 80 73 4F 92 5E 9B 85 85 8E 90 86 80  

AS29965C  10Sep2002
17:29-17:30(JST)
AOS   MEL  LOS  Elev
 14   102  190  76.6
Freq. 435.789-.787Hz
(JAS-2 No.108 A 1570-1900)
                                                      93 6C 8B 89 8B 8C 82 
HI HI AE 07 88 55 00 D4 1F F3 09 47 9E 64 59 5A 89 86 93 68 8B 8A 8B 8C 82 
HI HI AE 07 88 55 00 D4 1F F3 09 47 A3 6E 58 5C 88 86 92 7D 8B 89 8B 8C 82 
HI HI AE 07 88 55 00 D4 1F F3 09 47 A4 78 59 5C 88 86 92 6D 8B 8A 8B 8C 82 
HI HI AE 07 88 55 00 D4 1F F3 09 47 A4 80 5B 5A 88 85 92 78 8B 8A 8B 8C 82 
HI HI AE 07 88 55 00 D4 1F F3 09 47 A1 86 62 58 89 86 92 76 8B 8A 8B 8C 82 
HI HI AE 07 88 55 00 D4 1F F3 09 47 9D 89 6A 53 8A 86 93 7D 8B 8A 8B 8C 82 
HI HI AE 07 88 55 00 D4 1F F3 09 47 97 89 70 4F 8B 88 95 76 8B 8A 8B 8C 82 
HI HI AE 07 88 55 00 D4 1F F3 09 47 92 87 78 4B 8E 8A 97 6D 8C 8A 8B 8C 82 
HI HI AE 07 88 55 00 D4 1F F3 09 47 8D 83 7C 4C 92 8E 9C 6B 8C 8A 8B 8C 82 
HI HI AE C7 88 55 00 D4 1F F3 09 47 89 7D 7D 5F 90 8D B0 6E 8C 8A 8B 8C 82 
HI HI AE O7 88 55 00 D4 1F F3 09 47 86 77 7E 4B 92 8E 9B 7E 8C 8A 8B 8C 83 
HI HI AE 07 88 55 00 D4 2F F3 09 47 84 6F 7D 4E 93 8F 8C 84 8C 8A 8B 8B 82 
HI HI AE 07 88 55 00 D4 1F F3 09 47 84 6C 80 4E 93 8E 80 84 8C 8A 8B 8B 82 
HI HI AE 07 88 55 00 D5 1F F3 09 57 84 6E 83 5E 93 8E 83 84 8C 8A 8B 8B 82 
HI HI AE 07 88 55 00 D4 1F F3 09 47 87 66 74 4E 92 8E 9B 86 8B 8A 8B 8B 82 
HI HI AE 07 88 55 00 D4 1F F3 09 47 89 57 69 57 90 8C 99 7B 8B 8A 8B 8B 82 
HI HI AE 07 88 55 00 D4 1F F3 09 47 8B 6A 67 54 8F 8B 87 7B 8B 8A 8D 8B 82 
HI HI AE 07 85 55 00 D4 1F F3 99 47 8D 78 7O 4B 92 8E 9C 79 8B 8A 8B 8A 82 
HI HI AE C7 88 55 00 D4 1F F3 09 47 8D 

AS29951C  10Sep2002
17:29-17:30(JST)
AOS   MEL  LOS  Elev
 14   102  190  76.6
Freq. 435.804-.787Hz
(JAS-2 No.108 A 1570-1900)

HI HI AE 07 88 55 00 D4 A7 53 09 23 81 48 64 55 8C 89 96 8B 88 8D 8B 84 81 
HI HI AE 07 88 55 00 D4 A7 53 09 23 83 4A 64 55 8D 89 96 8C 88 8D 8C 84 81 
HI HI AE 07 88 55 00 D4 A7 53 09 23 85 4B 62 56 8C 89 96 7C 88 8D 8C 84 81 
HI HI AE 07 88 55 00 D4 A7 53 09 23 87 4D 62 56 8C 89 95 7F 87 8D 8C 84 81 
HI HI AE 07 88 55 00 D4 A7 53 09 23 89 4F 5F 57 8B 88 95 71 88 8D 8C 84 81 
HI HI AE 07 88 55 00 D4 A7 53 09 23 8A 50 5C 5A 8B 88 94 73 88 8D 8B 83 81 
HI HI AE 07 88 55 00 D4 A7 53 09 23 8D 52 5B 5E 8A 

AS29938C  09Sep2002
18:06-18:25(JST)
AOS   MEL  LOS  Elev
  5   291  215  44.6
Freq. 435.804-.787Hz
(JAS-2 No.108 A 440-1570)
 
HI HI AE 07 88 55 00 D4 00 00 09 00 5E 2B 69 52 8F 8C 99 77 8F 8A 88 8D 83 
HI HI AE 07 88 55 00 D4 00 00 09 00 66 28 69 E E N 8C 99 7D 8F 8A 88 8D 83 
HI HI AE 07 88 55 00 D4 00 00 09 00 6B 26 69 52 90 8C 99 87 8F 8A 88 8D 83 
HI HI AE 07 88 55 00 D4 00 00 09 00 71 26 6A 53 90 8C 9A 7E 8F 8A 88 8D 83 
HI HI AE 07 88 55 00 D4 00 00 09 00 77 27 6A 52 90 8D 9A 6D 8F 8A 88 8D 83 
HI HI AE 07 88 55 00 D4 00 00 09 00 7D 29 6A 52 90 8D 9A 7A 8F 8A 88 8E 83 
HI HI AE 07 88 55 00 D4 00 00 09 00 82 2C 6A 53 90 8D 9A 6A 8F 8A 88 8E 83 
HI HI AE 07 88 55 00 D4 00 00 09 00 86 30 6A 52 90 8D 9A 50 8F 89 87 8E 83 
HI HI AE 07 88 55 00 D4 00 01 09 00 8A 35 6A 52 90 8D 9A 75 8F 89 88 6E 83 
HI HI AE 07 88 55 00 D4 00 00 09 09 5E 3A 6A 51 90 8D 9A 71 90 89 88 8E 83 
HI HI AE 07 88 55 00 D4 00 00 00 09    41 6A 51 90 8D 9A 7C 90 89 87 8E 83 
HI HI AE 07 88 55 00 D4 00 00 00 09    48 6B 52 90 8D 9A 77 90 89 87 8E 83 
HI HI AE 07 88 55 00 D4 00 00 00 09    4F 6B 52 91 8D 9A 8D 90 89 87 8E 83 
HI HI AE 07 88 55 00 D4 00 00 00 09    57 6C 51 90 8D 9A 68 90 89 87 8E 83 
HI HI AE 07 88 55 00 D4 00 00 00 09    60 6C 52 91 8D 9A 7B 90 89 87 8E 83 
HI HI AE 07 88 55 00 D4 00 00 00 09    69 6C 51 91 8D 9A 7A 90 88 87 8E 83
HI HI AE 07 88 55 00 D4 00 00 00 09 8F 7A 6C 51 91 8D 9A 7F 90 88 87 8E 83 
HI HI AE 07 88 55 00 D4 00 00 00    65 82 6C 51 91 8D 9A 7A Z0 88 87 8E 83 
HI HI AE 07 88 55 00 D4 00 00 00    78 68 6E 50 91 8D 9A 78 90 88 87 8F 83 
HI HI AE 07 88 55 00 D4 00 00 00    65 60 6F 50 92 8D 9B 8B 90 88 87 8F 83
     
------------------------ FO-29の軌道要素 ------------------------------        
 
  ■ 軌道要素1:「jamsat−keps:1237」より         
          SB KEPS @ AMSAT  $ORB02242.N
          2Line Orbital Elements 02242.AMSAT

HR AMSAT ORBITAL ELEMENTS FOR AMATEUR SATELLITES IN NASA FORMAT
FROM WA5QGD FORT WORTH,TX August 30, 2002
SEND SUBSCRIBE/UNSUBSCRIBE TO majordomo@amsat.org ONLY
BID: ORB02242.N

 DECODE 2-LINE ELSETS WITH THE FOLLOWING KEY:
 1 AAAAAU 00  0  0 BBBBB.BBBBBBBB  .CCCCCCCC  00000-0  00000-0 0  DDDZ
 2 AAAAA EEE.EEEE FFF.FFFF GGGGGGG HHH.HHHH III.IIII JJ.JJJJJJJJKKKKKZ
 KEY: A-CATALOGNUM B-EPOCHTIME C-DECAY D-ELSETNUM E-INCLINATION F-RAAN
 G-ECCENTRICITY H-ARGPERIGEE I-MNANOM J-MNMOTION K-ORBITNUM Z-CHECKSUM

FO-29
1 24278U 96046B   02240.89100701  .00000007  00000-0  46129-4 0 05227
2 24278 098.5177 050.8593 0350438 306.9228 050.0286 13.52848418297828

 ■ 軌道要素2:「jamsat−keps:1238」より 
       SB KEPS @ AMSAT  $ORB02242.O
       Orbital Elements  02242.OSCAR

HR AMSAT ORBITAL ELEMENTS FOR OSCAR SATELLITES
FROM WA5QGD FORT WORTH,TX August 30, 2002
SEND SUBSCRIBE/UNSUBSCRIBE TO majordomo@amsat.org ONLY
BID: ORB02242.O
TO ALL RADIO AMATEURS BT

Satellite: FO-29
Catalog number: 24278
Epoch time:      02240.89100701
Element set:    0522
Inclination:      098.5177 deg
RA of node:       050.8593 deg
Eccentricity:    0.0350438
Arg of perigee:   306.9228 deg
Mean anomaly:     050.0286 deg
Mean motion:   13.52848418 rev/day
Decay rate:        7.0e-08 rev/day^2
Epoch rev:           29782
Checksum:              309

-------------------  FO-29(JAS-2)のテレメトリに関する情報  ---------------------- 
 
2)本日のハムフェアにおける衛星受信実演協力(熊本より)のため上記2002年
 9月13日(金)のテレメトリの16:14のパスの最終行を分析して
 おきます。

AS29991C  13Sep2002
16:14-16:29(JST)
AOS   MEL  LOS  Elev
 26    93  161  27.1
Freq. 435.802-.787Hz
(JAS-2 No.108 A 3360-3860END)
HI HI AE 07 88 55 00 D4 00 00 09 00 3C 73 68 53 90 8B 99 80 91 89 88 8F 84

